M I D A S
Marine Information and Data Acquisition System
Tripno 2151 of the Zeeleeuw from 2011-07-26 06:31:55 to 2011-07-26 13:52:39
Back to CruiseResearch ActivitiesStationsMapUnderway DataData graphs

EquipmentUnitsComments
TimeDGPSUTC
LatitudeDGPSDM.mWGS84
LongitudeDGPSDM.mWGS84
SpeedMeteo Stationm/sRelative wind speed
DirectionMeteo StationdegRelative wind direction
TemperatureMeteo Stationdeg CelciusAir temperature
PressureMeteo StationPaAtmospheric pressure
HumidityMeteo Station%Relative humidity
Missing or incorrect values are displayed as -999
Metereological data collected by the RV Zeeleeuw from 2011-07-26 06:33:15 to 2011-07-26 13:58:13
Time Latitude Longitude Speed Direction Temperature Pressure Humidity
2011-07-26 06:34 51°13.65 2°55.946 -999 79 15.7 101160 44
2011-07-26 06:35 51°13.665 2°55.874 -999 55 15.6 101160 45
2011-07-26 06:36 51°13.701 2°55.799 5.7 53 15.5 101160 46
2011-07-26 06:37 51°13.749 2°55.721 5.4 52 15.7 101160 45
2011-07-26 06:38 51°13.797 2°55.661 5.3 58 15.8 101160 46
2011-07-26 06:39 51°13.865 2°55.638 7.8 57 15.8 101150 45
2011-07-26 06:40 51°13.925 2°55.639 7.2 41 15.7 101150 45
2011-07-26 06:41 51°13.949 2°55.651 5.9 30 15.6 101150 45
2011-07-26 06:42 51°13.935 2°55.625 4.3 7 15.5 101150 43
2011-07-26 06:43 51°13.934 2°55.613 7.8 343 15.6 101150 46
2011-07-26 06:44 51°13.99 2°55.546 8.2 330 15.5 101150 46
2011-07-26 06:45 51°14.088 2°55.46 9.9 331 15.5 101150 45
2011-07-26 06:46 51°14.211 2°55.351 9 330 15.5 101140 46
2011-07-26 06:47 51°14.349 2°55.224 10.5 329 15.4 101140 45
2011-07-26 06:48 51°14.48 2°55.08 11.9 331 15.4 101130 46
2011-07-26 06:49 51°14.637 2°54.933 11.1 337 15.5 101150 46
2011-07-26 06:50 51°14.789 2°54.774 10.6 332 15.5 101150 45
2011-07-26 06:51 51°14.95 2°54.585 13.6 334 15.4 101140 45
2011-07-26 06:52 51°15.109 2°54.407 12.3 332 15.4 101150 45
2011-07-26 06:53 51°15.268 2°54.215 2.6 336 15.6 101140 46
2011-07-26 06:54 51°15.425 2°54.011 11.5 330 15.5 101140 46
2011-07-26 06:55 51°15.57 2°53.788 6 336 15.5 101150 46
2011-07-26 06:56 51°15.722 2°53.582 11.9 333 15.5 101140 46
2011-07-26 06:57 51°15.878 2°53.378 14.7 333 15.5 101150 46
2011-07-26 06:58 51°16.055 2°53.226 13.6 329 15.5 101150 44
2011-07-26 06:59 51°16.245 2°53.119 13.8 330 15.5 101150 46
2011-07-26 07:00 51°16.435 2°52.999 11.9 332 15.5 101150 46
2011-07-26 07:01 51°16.617 2°52.861 12.2 331 15.5 101140 47
2011-07-26 07:02 51°16.809 2°52.757 13.5 330 15.5 101140 47
2011-07-26 07:03 51°17 2°52.656 6.3 329 15.4 101160 46
2011-07-26 07:04 51°17.2 2°52.598 11.1 327 15.4 101130 47
2011-07-26 07:05 51°17.403 2°52.56 13.9 326 15.4 101150 46
2011-07-26 07:06 51°17.609 2°52.542 10.2 328 15.5 101140 46
2011-07-26 07:07 51°17.817 2°52.546 12.1 324 15.4 101150 46
2011-07-26 07:08 51°18.024 2°52.543 12.8 325 15.4 101150 46
2011-07-26 07:09 51°18.228 2°52.561 11.1 305 15.4 101150 46
2011-07-26 07:10 51°18.434 2°52.573 10.4 303 15.5 101150 47
2011-07-26 07:11 51°18.639 2°52.567 11.5 324 15.4 101150 47
2011-07-26 07:12 51°18.843 2°52.576 14.3 305 15.4 101160 47
2011-07-26 07:13 51°19.051 2°52.586 5.9 302 15.4 101150 46
2011-07-26 07:14 51°19.257 2°52.579 6.3 303 15.4 101150 46
2011-07-26 07:15 51°19.46 2°52.59 14.6 305 15.4 101160 47
2011-07-26 07:16 51°19.664 2°52.589 12 304 15.4 101150 48
2011-07-26 07:17 51°19.869 2°52.584 12.3 306 15.4 101140 47
2011-07-26 07:18 51°20.072 2°52.592 13.4 324 15.5 101160 47
2011-07-26 07:19 51°20.279 2°52.58 14.5 305 15.5 101150 48
2011-07-26 07:20 51°20.486 2°52.574 15 325 15.4 101160 47
2011-07-26 07:21 51°20.688 2°52.583 11.5 324 15.3 101150 47
2011-07-26 07:22 51°20.893 2°52.575 14.5 304 15.4 101150 46
2011-07-26 07:23 51°21.096 2°52.581 12.5 305 15.3 101140 47
2011-07-26 07:24 51°21.3 2°52.578 13.2 325 15.3 101150 48
2011-07-26 07:25 51°21.508 2°52.569 12.3 305 15.4 101160 47
2011-07-26 07:26 51°21.715 2°52.578 12.8 324 15.4 101160 47
2011-07-26 07:27 51°21.922 2°52.574 14 303 15.3 101140 47
2011-07-26 07:28 51°22.13 2°52.568 11.6 321 15.3 101160 48
2011-07-26 07:29 51°22.336 2°52.574 6.4 326 15.3 101160 47
2011-07-26 07:30 51°22.543 2°52.57 12.2 305 15.1 101170 45
2011-07-26 07:31 51°22.751 2°52.567 5.9 305 15.2 101160 47
2011-07-26 07:32 51°22.961 2°52.575 13.8 303 15.3 101160 48
2011-07-26 07:33 51°23.167 2°52.588 9 304 15.3 101150 48
2011-07-26 07:34 51°23.374 2°52.581 6 305 15.2 101160 47
2011-07-26 07:35 51°23.582 2°52.581 13.8 306 15.3 101160 48
2011-07-26 07:36 51°23.787 2°52.593 13.8 307 15.3 101150 46
2011-07-26 07:37 51°23.99 2°52.583 5.9 301 15.3 101160 48
2011-07-26 07:38 51°24.191 2°52.601 11.3 309 15.3 101150 46
2011-07-26 07:39 51°24.395 2°52.605 6.4 307 15.3 101160 48
2011-07-26 07:40 51°24.599 2°52.614 9.9 307 15.3 101160 47
2011-07-26 07:41 51°24.8 2°52.622 6.1 304 15.3 101160 47
2011-07-26 07:42 51°25.003 2°52.62 10.9 305 15.3 101160 48
2011-07-26 07:43 51°25.21 2°52.629 13.5 305 15.3 101160 48
2011-07-26 07:44 51°25.416 2°52.613 13.5 327 15.3 101170 47
2011-07-26 07:45 51°25.622 2°52.61 6.3 303 15.3 101150 48
2011-07-26 07:46 51°25.828 2°52.611 14.3 305 15.2 101170 46
2011-07-26 07:47 51°26.031 2°52.587 14.1 324 15.3 101170 48
2011-07-26 07:48 51°26.238 2°52.567 8.9 326 15.3 101170 48
2011-07-26 07:49 51°26.443 2°52.548 13.7 325 15.2 101170 48
2011-07-26 07:50 51°26.647 2°52.527 12.9 305 15.3 101160 48
2011-07-26 07:51 51°26.851 2°52.533 14.1 305 15.2 101160 48
2011-07-26 07:52 51°27.055 2°52.54 6.8 328 15.2 101160 47
2011-07-26 07:53 51°27.257 2°52.515 11.1 302 15.1 101190 47
2011-07-26 07:54 51°27.46 2°52.504 13 305 15.1 101180 46
2011-07-26 07:55 51°27.666 2°52.493 11.4 324 15 101180 48
2011-07-26 07:56 51°27.872 2°52.483 15.9 305 15 101180 48
2011-07-26 07:57 51°28.074 2°52.461 10.1 303 15 101170 48
2011-07-26 07:58 51°28.278 2°52.458 6.2 305 15 101170 47
2011-07-26 07:59 51°28.48 2°52.451 14 306 15 101190 48
2011-07-26 08:00 51°28.683 2°52.441 13.2 305 15.1 101180 48
2011-07-26 08:01 51°28.887 2°52.425 13 322 15.2 101170 49
2011-07-26 08:02 51°29.094 2°52.423 11.3 309 15.1 101190 47
2011-07-26 08:03 51°29.305 2°52.424 10.7 307 15.1 101180 48
2011-07-26 08:04 51°29.509 2°52.425 15 307 15.1 101180 49
2011-07-26 08:05 51°29.716 2°52.447 15.1 303 15.1 101160 49
2011-07-26 08:06 51°29.919 2°52.451 6.8 304 15 101200 49
2011-07-26 08:07 51°30.126 2°52.449 11.7 305 15 101180 48
2011-07-26 08:08 51°30.33 2°52.466 11.9 302 14.9 101190 48
2011-07-26 08:09 51°30.536 2°52.474 14.2 306 15 101180 49
2011-07-26 08:10 51°30.735 2°52.478 5.9 305 14.9 101180 47
2011-07-26 08:11 51°30.94 2°52.485 12.4 325 14.9 101190 50
2011-07-26 08:12 51°31.122 2°52.496 9 326 14.9 101190 49
2011-07-26 08:13 51°31.213 2°52.501 7 326 14.8 101190 49
2011-07-26 08:14 51°31.245 2°52.497 9.1 338 14.9 101200 50
2011-07-26 08:15 51°31.243 2°52.516 6.5 358 14.9 101200 49
2011-07-26 08:16 51°31.239 2°52.541 8.3 13 14.9 101200 48
2011-07-26 08:17 51°31.237 2°52.555 8.2 9 14.9 101200 50
2011-07-26 08:18 51°31.235 2°52.551 6.9 1 14.9 101200 48
2011-07-26 08:19 51°31.234 2°52.549 7.2 353 14.9 101200 50
2011-07-26 08:20 51°31.233 2°52.552 7 355 14.9 101190 49
2011-07-26 08:21 51°31.233 2°52.551 6.4 358 14.9 101190 49
2011-07-26 08:22 51°31.233 2°52.551 7.5 352 14.9 101200 49
2011-07-26 08:23 51°31.233 2°52.553 9.9 356 14.8 101200 50
2011-07-26 08:24 51°31.233 2°52.55 7.1 356 14.8 101210 50
2011-07-26 08:25 51°31.232 2°52.551 6.7 1 14.7 101190 50
2011-07-26 08:26 51°31.232 2°52.551 7.2 359 14.8 101190 47
2011-07-26 08:27 51°31.232 2°52.549 9.6 358 14.8 101200 49
2011-07-26 08:28 51°31.232 2°52.551 5.7 355 14.8 101210 50
2011-07-26 08:29 51°31.231 2°52.55 7.2 -999 14.8 101210 48
2011-07-26 08:30 51°31.231 2°52.548 7.7 354 14.8 101210 50
2011-07-26 08:31 51°31.231 2°52.549 6.9 349 14.8 101210 48
2011-07-26 08:32 51°31.231 2°52.552 9.3 354 14.8 101190 49
2011-07-26 08:33 51°31.232 2°52.55 7.8 355 14.6 101200 48
2011-07-26 08:34 51°31.231 2°52.549 9.3 359 14.6 101220 47
2011-07-26 08:35 51°31.23 2°52.549 6.4 356 14.6 101210 48
2011-07-26 08:36 51°31.231 2°52.547 7 359 14.8 101220 50
2011-07-26 08:37 51°31.231 2°52.549 6.7 355 14.8 101210 50
2011-07-26 08:38 51°31.231 2°52.551 7.7 358 14.8 101230 50
2011-07-26 08:39 51°31.232 2°52.55 7.1 355 14.8 101220 50
2011-07-26 08:40 51°31.232 2°52.552 7.1 354 14.7 101220 48
2011-07-26 08:41 51°31.235 2°52.551 6.9 351 14.7 101230 50
2011-07-26 08:42 51°31.236 2°52.553 8.5 357 14.7 101230 49
2011-07-26 08:43 51°31.236 2°52.555 6.6 353 14.8 101230 50
2011-07-26 08:44 51°31.235 2°52.555 6.7 356 14.7 101230 49
2011-07-26 08:45 51°31.235 2°52.552 6.4 355 14.8 101240 48
2011-07-26 08:46 51°31.236 2°52.554 6.7 354 14.8 101240 50
2011-07-26 08:47 51°31.237 2°52.555 7.7 356 14.7 101230 48
2011-07-26 08:48 51°31.237 2°52.554 9.6 -999 15 101230 49
2011-07-26 08:49 51°31.236 2°52.555 6.9 4 14.8 101230 49
2011-07-26 08:50 51°31.236 2°52.554 9.2 1 14.8 101230 48
2011-07-26 08:51 51°31.236 2°52.553 6.2 6 14.7 101240 50
2011-07-26 08:52 51°31.235 2°52.554 10.4 -999 14.6 101240 49
2011-07-26 08:53 51°31.235 2°52.553 6.4 360 14.6 101240 49
2011-07-26 08:54 51°31.236 2°52.552 10.2 -999 14.7 101250 50
2011-07-26 08:55 51°31.236 2°52.553 7 1 14.6 101230 51
2011-07-26 08:56 51°31.235 2°52.554 7.5 1 14.5 101240 50
2011-07-26 08:57 51°31.235 2°52.553 9.2 359 14.6 101250 52
2011-07-26 08:58 51°31.236 2°52.552 8.8 359 14.6 101240 49
2011-07-26 08:59 51°31.235 2°52.555 8.7 359 14.4 101240 50
2011-07-26 09:00 51°31.239 2°52.544 9.8 356 14.3 101240 50
2011-07-26 09:01 51°31.245 2°52.532 6.5 355 14.3 101230 50
2011-07-26 09:02 51°31.245 2°52.528 10.2 1 14.4 101230 51
2011-07-26 09:03 51°31.245 2°52.529 6.1 359 14.3 101240 51
2011-07-26 09:04 51°31.243 2°52.542 6.1 5 14.4 101230 51
2011-07-26 09:05 51°31.239 2°52.551 8.4 10 14.4 101240 51
2011-07-26 09:06 51°31.217 2°52.531 5.7 36 14.4 101240 49
2011-07-26 09:07 51°31.144 2°52.546 3.3 34 14.4 101250 51
2011-07-26 09:08 51°30.995 2°52.518 5.3 15 14.4 101240 51
2011-07-26 09:09 51°30.808 2°52.467 4.3 11 14.4 101250 51
2011-07-26 09:10 51°30.604 2°52.449 2.2 18 14.4 101250 51
2011-07-26 09:11 51°30.402 2°52.433 3.5 22 14.4 101260 50
2011-07-26 09:12 51°30.2 2°52.424 3.7 20 14.4 101260 51
2011-07-26 09:13 51°29.996 2°52.42 2.8 25 14.4 101260 50
2011-07-26 09:14 51°29.79 2°52.413 4 16 14.4 101260 50
2011-07-26 09:15 51°29.589 2°52.401 4.1 19 14.4 101270 50
2011-07-26 09:16 51°29.387 2°52.385 2.6 22 14.5 101270 51
2011-07-26 09:17 51°29.189 2°52.369 5.4 13 14.5 101260 51
2011-07-26 09:18 51°28.989 2°52.35 3.9 19 14.6 101260 50
2011-07-26 09:19 51°28.787 2°52.336 4 13 14.5 101270 51
2011-07-26 09:20 51°28.589 2°52.291 6.5 12 14.5 101260 50
2011-07-26 09:21 51°28.387 2°52.246 3.7 22 14.6 101260 51
2011-07-26 09:22 51°28.189 2°52.199 3.9 12 14.6 101260 50
2011-07-26 09:23 51°27.99 2°52.153 4.2 12 14.6 101270 51
2011-07-26 09:24 51°27.793 2°52.105 3.1 18 14.6 101260 49
2011-07-26 09:25 51°27.595 2°52.064 4.8 11 14.6 101260 51
2011-07-26 09:26 51°27.397 2°52.021 4 11 14.6 101260 51
2011-07-26 09:27 51°27.197 2°51.972 3.2 11 14.6 101270 51
2011-07-26 09:28 51°27.005 2°51.929 4.1 26 14.6 101270 49
2011-07-26 09:29 51°26.862 2°51.91 4 29 14.6 101280 51
2011-07-26 09:30 51°26.754 2°51.894 5.5 27 14.6 101270 49
2011-07-26 09:31 51°26.713 2°51.855 6.8 12 14.7 101260 50
2011-07-26 09:32 51°26.706 2°51.846 7 8 14.7 101260 50
2011-07-26 09:33 51°26.705 2°51.87 5.7 16 14.7 101270 49
2011-07-26 09:34 51°26.704 2°51.895 5.5 20 14.7 101280 50
2011-07-26 09:35 51°26.703 2°51.898 6.7 13 14.9 101280 51
2011-07-26 09:36 51°26.703 2°51.894 6.5 8 14.7 101270 49
2011-07-26 09:37 51°26.703 2°51.897 7.9 14 14.6 101280 49
2011-07-26 09:38 51°26.704 2°51.898 6.1 6 14.9 101260 48
2011-07-26 09:39 51°26.704 2°51.898 5.7 6 14.8 101280 49
2011-07-26 09:40 51°26.705 2°51.896 7.2 1 14.7 101280 50
2011-07-26 09:41 51°26.705 2°51.897 6.7 8 14.6 101280 50
2011-07-26 09:42 51°26.705 2°51.898 9.3 8 14.6 101280 49
2011-07-26 09:43 51°26.705 2°51.898 7.9 9 14.5 101290 50
2011-07-26 09:44 51°26.706 2°51.897 5.5 3 14.5 101290 49
2011-07-26 09:45 51°26.705 2°51.898 4.6 6 14.6 101290 49
2011-07-26 09:46 51°26.706 2°51.897 6.5 7 14.6 101290 49
2011-07-26 09:47 51°26.706 2°51.897 5.9 1 14.7 101280 51
2011-07-26 09:48 51°26.707 2°51.897 5.4 8 14.7 101290 51
2011-07-26 09:49 51°26.707 2°51.896 4.1 2 14.7 101290 49
2011-07-26 09:50 51°26.707 2°51.898 7 12 14.8 101290 51
2011-07-26 09:51 51°26.707 2°51.897 7 15 14.8 101290 51
2011-07-26 09:52 51°26.709 2°51.896 7.2 10 14.7 101300 49
2011-07-26 09:53 51°26.709 2°51.897 6.1 7 14.8 101280 51
2011-07-26 09:54 51°26.709 2°51.897 6.1 9 14.5 101300 49
2011-07-26 09:55 51°26.709 2°51.897 5.9 13 14.5 101300 51
2011-07-26 09:56 51°26.709 2°51.896 5.5 8 14.5 101300 51
2011-07-26 09:57 51°26.71 2°51.895 4.7 5 14.6 101300 51
2011-07-26 09:58 51°26.71 2°51.897 6.9 9 14.7 101290 50
2011-07-26 09:59 51°26.71 2°51.897 4.4 5 14.7 101300 49
2011-07-26 10:00 51°26.71 2°51.896 6.3 4 14.8 101300 50
2011-07-26 10:01 51°26.709 2°51.897 7.5 10 14.9 101290 51
2011-07-26 10:02 51°26.708 2°51.897 7.4 11 14.7 101290 48
2011-07-26 10:03 51°26.708 2°51.896 5.5 4 14.7 101290 49
2011-07-26 10:04 51°26.708 2°51.896 7.3 10 14.8 101310 49
2011-07-26 10:05 51°26.708 2°51.897 6.3 10 14.8 101300 49
2011-07-26 10:06 51°26.708 2°51.897 5.3 7 14.8 101290 50
2011-07-26 10:07 51°26.708 2°51.897 7.2 12 14.7 101300 49
2011-07-26 10:08 51°26.709 2°51.896 6.1 10 14.8 101300 49
2011-07-26 10:09 51°26.709 2°51.896 6.3 8 14.8 101300 49
2011-07-26 10:10 51°26.71 2°51.896 7.3 7 14.8 101300 47
2011-07-26 10:11 51°26.712 2°51.895 4.9 7 14.8 101300 49
2011-07-26 10:12 51°26.712 2°51.895 7.1 7 14.8 101300 50
2011-07-26 10:13 51°26.711 2°51.896 6 8 14.8 101310 49
2011-07-26 10:14 51°26.71 2°51.896 5.9 6 14.9 101300 50
2011-07-26 10:15 51°26.709 2°51.895 7.8 11 14.8 101300 48
2011-07-26 10:16 51°26.708 2°51.884 7.9 6 14.8 101310 49
2011-07-26 10:17 51°26.708 2°51.868 6.2 3 14.9 101300 50
2011-07-26 10:18 51°26.707 2°51.856 6 7 14.8 101310 48
2011-07-26 10:19 51°26.708 2°51.858 7.1 6 14.8 101300 50
2011-07-26 10:20 51°26.706 2°51.87 7.3 15 14.8 101290 49
2011-07-26 10:21 51°26.703 2°51.875 7.6 11 14.9 101300 49
2011-07-26 10:22 51°26.698 2°51.83 8.1 9 14.8 101290 48
2011-07-26 10:23 51°26.688 2°51.762 7.4 8 14.7 101300 50
2011-07-26 10:24 51°26.668 2°51.661 6.5 4 14.7 101300 50
2011-07-26 10:25 51°26.637 2°51.494 7.2 1 14.7 101300 50
2011-07-26 10:26 51°26.61 2°51.31 6.4 -999 14.6 101310 49
2011-07-26 10:27 51°26.584 2°51.115 7 2 14.6 101310 51
2011-07-26 10:28 51°26.559 2°50.922 7 7 14.6 101300 50
2011-07-26 10:29 51°26.537 2°50.731 9.1 2 14.6 101310 51
2011-07-26 10:30 51°26.507 2°50.514 8.8 356 14.6 101300 51
2011-07-26 10:31 51°26.473 2°50.278 9 357 14.7 101310 50
2011-07-26 10:32 51°26.444 2°50.031 11 356 14.6 101300 50
2011-07-26 10:33 51°26.411 2°49.783 11.5 357 14.6 101310 51
2011-07-26 10:34 51°26.381 2°49.536 10.9 355 14.5 101300 48
2011-07-26 10:35 51°26.349 2°49.286 10.4 352 14.4 101310 50
2011-07-26 10:36 51°26.318 2°49.045 11.7 354 14.5 101310 50
2011-07-26 10:37 51°26.274 2°48.806 9.5 2 14.5 101310 50
2011-07-26 10:38 51°26.224 2°48.631 8.1 6 14.5 101320 50
2011-07-26 10:39 51°26.177 2°48.463 8.6 5 14.6 101330 49
2011-07-26 10:40 51°26.133 2°48.303 7.5 8 14.6 101320 49
2011-07-26 10:41 51°26.091 2°48.137 9.3 6 14.7 101320 49
2011-07-26 10:42 51°26.043 2°47.981 6.9 8 14.6 101320 48
2011-07-26 10:43 51°25.994 2°47.821 8.4 6 14.7 101330 49
2011-07-26 10:44 51°25.942 2°47.663 9.7 8 14.7 101320 50
2011-07-26 10:45 51°25.893 2°47.503 5.8 9 14.7 101330 50
2011-07-26 10:46 51°25.847 2°47.338 7.7 7 14.8 101330 50
2011-07-26 10:47 51°25.798 2°47.175 7 6 14.9 101330 49
2011-07-26 10:48 51°25.745 2°47.011 5.6 5 14.8 101330 48
2011-07-26 10:49 51°25.704 2°46.872 7.1 10 14.7 101340 48
2011-07-26 10:50 51°25.672 2°46.767 6.5 11 14.7 101330 48
2011-07-26 10:51 51°25.644 2°46.675 8.3 14 14.7 101340 50
2011-07-26 10:52 51°25.62 2°46.593 6.7 15 14.9 101330 50
2011-07-26 10:53 51°25.596 2°46.513 9 13 14.8 101340 48
2011-07-26 10:54 51°25.57 2°46.432 7.8 14 14.8 101350 49
2011-07-26 10:55 51°25.54 2°46.347 7.4 15 14.8 101350 49
2011-07-26 10:56 51°25.499 2°46.234 8.1 10 14.8 101340 50
2011-07-26 10:57 51°25.454 2°46.111 7.2 7 14.7 101340 50
2011-07-26 10:58 51°25.433 2°46.034 8.6 7 14.7 101350 47
2011-07-26 10:59 51°25.425 2°45.993 6.8 12 14.8 101350 49
2011-07-26 11:00 51°25.42 2°45.973 5.5 16 14.9 101350 49
2011-07-26 11:01 51°25.417 2°45.963 5.4 6 14.9 101350 49
2011-07-26 11:02 51°25.416 2°45.962 8.2 6 15 101350 49
2011-07-26 11:03 51°25.412 2°45.968 7.8 6 15 101350 49
2011-07-26 11:04 51°25.408 2°45.98 8.3 13 14.8 101340 49
2011-07-26 11:05 51°25.406 2°45.995 8.5 20 14.8 101350 49
2011-07-26 11:06 51°25.403 2°46.012 8.7 24 14.8 101350 49
2011-07-26 11:07 51°25.4 2°46.028 7.8 25 14.9 101350 50
2011-07-26 11:08 51°25.397 2°46.044 6.3 24 14.8 101360 50
2011-07-26 11:09 51°25.395 2°46.06 6.5 26 14.8 101350 50
2011-07-26 11:10 51°25.391 2°46.076 8.2 24 14.7 101350 50
2011-07-26 11:11 51°25.388 2°46.089 6.8 22 14.7 101360 50
2011-07-26 11:12 51°25.385 2°46.102 8.1 20 14.6 101370 49
2011-07-26 11:13 51°25.381 2°46.114 7.2 28 14.6 101360 50
2011-07-26 11:14 51°25.379 2°46.125 9.2 25 14.7 101360 49
2011-07-26 11:15 51°25.375 2°46.138 7.2 20 14.6 101360 50
2011-07-26 11:16 51°25.372 2°46.148 6 23 14.5 101370 50
2011-07-26 11:17 51°25.368 2°46.158 7 16 14.5 101370 49
2011-07-26 11:18 51°25.364 2°46.167 6.9 19 14.5 101370 50
2011-07-26 11:19 51°25.361 2°46.175 5.8 18 14.6 101360 50
2011-07-26 11:20 51°25.357 2°46.179 6.8 17 14.6 101360 50
2011-07-26 11:21 51°25.325 2°46.077 9 359 14.6 101350 49
2011-07-26 11:22 51°25.262 2°45.83 8.4 355 14.6 101340 49
2011-07-26 11:23 51°25.195 2°45.563 8.1 356 14.6 101350 49
2011-07-26 11:24 51°25.143 2°45.254 9.1 349 14.6 101350 50
2011-07-26 11:25 51°25.09 2°44.94 11.6 351 14.7 101350 50
2011-07-26 11:26 51°25.02 2°44.631 9 -999 14.6 101360 50
2011-07-26 11:27 51°24.944 2°44.336 7.4 359 14.7 101350 50
2011-07-26 11:28 51°24.914 2°44.167 8 359 14.7 101360 49
2011-07-26 11:29 51°24.878 2°44.077 7.4 16 14.7 101370 50
2011-07-26 11:30 51°24.844 2°44.002 5.8 7 14.7 101370 48
2011-07-26 11:31 51°24.811 2°43.926 6.4 16 14.8 101370 49
2011-07-26 11:32 51°24.771 2°43.857 6.6 19 14.7 101380 50
2011-07-26 11:33 51°24.729 2°43.792 5.2 23 14.7 101370 49
2011-07-26 11:34 51°24.701 2°43.74 5.2 15 14.8 101380 49
2011-07-26 11:35 51°24.677 2°43.707 6.9 28 14.9 101370 50
2011-07-26 11:36 51°24.663 2°43.698 5.5 30 14.9 101380 49
2011-07-26 11:37 51°24.659 2°43.7 4.6 28 14.9 101380 48
2011-07-26 11:38 51°24.656 2°43.703 6.1 21 14.9 101380 48
2011-07-26 11:39 51°24.652 2°43.708 5.7 14 15 101380 49
2011-07-26 11:40 51°24.648 2°43.711 4.6 18 15 101380 48
2011-07-26 11:41 51°24.644 2°43.715 6.6 13 15.1 101380 48
2011-07-26 11:42 51°24.64 2°43.723 8.3 21 15 101390 48
2011-07-26 11:43 51°24.648 2°43.755 7.4 32 15 101390 49
2011-07-26 11:44 51°24.668 2°43.787 6.7 38 15 101390 48
2011-07-26 11:45 51°24.657 2°43.776 7.1 13 15.1 101380 49
2011-07-26 11:46 51°24.664 2°43.692 7.2 341 15.1 101380 47
2011-07-26 11:47 51°24.709 2°43.667 7.9 307 15.1 101380 47
2011-07-26 11:48 51°24.724 2°43.684 7.1 308 15.2 101380 48
2011-07-26 11:49 51°24.721 2°43.69 5.7 304 15.2 101400 49
2011-07-26 11:50 51°24.717 2°43.692 5.7 306 15.3 101400 49
2011-07-26 11:51 51°24.713 2°43.698 6.4 303 15.3 101390 49
2011-07-26 11:52 51°24.709 2°43.701 4.4 310 15.3 101380 47
2011-07-26 11:53 51°24.704 2°43.7 4.3 307 15.3 101390 47
2011-07-26 11:54 51°24.7 2°43.706 5.5 58 15.3 101390 47
2011-07-26 11:55 51°24.695 2°43.71 5.2 308 15.3 101390 48
2011-07-26 11:56 51°24.689 2°43.711 4.9 304 15.3 101390 47
2011-07-26 11:57 51°24.682 2°43.714 4.7 303 15.3 101390 48
2011-07-26 11:58 51°24.675 2°43.719 4.9 304 15.3 101390 49
2011-07-26 11:59 51°24.669 2°43.723 4.2 302 15.2 101400 48
2011-07-26 12:00 51°24.663 2°43.728 4.6 302 15.2 101400 49
2011-07-26 12:01 51°24.658 2°43.734 4.2 308 15.2 101410 47
2011-07-26 12:02 51°24.653 2°43.741 5.1 303 15.2 101410 48
2011-07-26 12:03 51°24.646 2°43.745 6.8 302 15.3 101390 49
2011-07-26 12:04 51°24.639 2°43.749 6.5 306 15.3 101400 47
2011-07-26 12:05 51°24.64 2°43.773 7.2 308 15.3 101410 48
2011-07-26 12:06 51°24.666 2°43.805 6.8 303 15.3 101390 49
2011-07-26 12:07 51°24.701 2°43.79 4 341 15.3 101400 49
2011-07-26 12:08 51°24.708 2°43.765 7.6 360 15.3 101400 49
2011-07-26 12:09 51°24.703 2°43.755 7.2 8 15.4 101400 50
2011-07-26 12:10 51°24.695 2°43.744 7.4 13 15.3 101410 47
2011-07-26 12:11 51°24.687 2°43.73 8.7 13 15.3 101410 50
2011-07-26 12:12 51°24.678 2°43.722 6.3 17 15.1 101410 49
2011-07-26 12:13 51°24.67 2°43.717 7.5 14 15.1 101410 50
2011-07-26 12:14 51°24.662 2°43.716 7 18 15.1 101410 49
2011-07-26 12:15 51°24.655 2°43.717 7.5 21 15.1 101410 50
2011-07-26 12:16 51°24.647 2°43.718 5.8 22 15.1 101410 49
2011-07-26 12:17 51°24.64 2°43.721 5.8 18 15.1 101410 48
2011-07-26 12:18 51°24.632 2°43.724 6.7 26 15.2 101420 47
2011-07-26 12:19 51°24.625 2°43.724 5.5 29 15.1 101420 49
2011-07-26 12:20 51°24.619 2°43.67 9.2 347 15.2 101420 50
2011-07-26 12:21 51°24.664 2°43.626 7.8 305 15.2 101410 48
2011-07-26 12:22 51°24.69 2°43.666 6.1 307 15.3 101430 49
2011-07-26 12:23 51°24.689 2°43.688 3.6 302 15.3 101430 50
2011-07-26 12:24 51°24.686 2°43.699 5.6 304 15.4 101440 49
2011-07-26 12:25 51°24.682 2°43.706 6.6 303 15.4 101420 48
2011-07-26 12:26 51°24.676 2°43.708 5.7 304 15.4 101420 48
2011-07-26 12:27 51°24.667 2°43.706 5.9 305 15.4 101420 50
2011-07-26 12:28 51°24.658 2°43.702 6.5 304 15.4 101420 49
2011-07-26 12:29 51°24.65 2°43.698 3.7 309 15.3 101430 48
2011-07-26 12:30 51°24.641 2°43.693 4.6 309 15.3 101430 49
2011-07-26 12:31 51°24.631 2°43.69 3.3 303 15.3 101430 49
2011-07-26 12:32 51°24.623 2°43.688 4.5 305 15.4 101430 50
2011-07-26 12:33 51°24.616 2°43.688 5 302 15.3 101420 49
2011-07-26 12:34 51°24.608 2°43.688 4.8 312 15.4 101450 48
2011-07-26 12:35 51°24.604 2°43.703 6.3 303 15.4 101440 49
2011-07-26 12:36 51°24.628 2°43.773 3 309 15.4 101420 49
2011-07-26 12:37 51°24.599 2°43.904 -999 305 15.4 101440 48
2011-07-26 12:38 51°24.504 2°44.083 -999 40 15.4 101430 48
2011-07-26 12:39 51°24.357 2°44.185 -999 44 15.5 101440 49
2011-07-26 12:40 51°24.207 2°44.278 -999 55 15.5 101440 48
2011-07-26 12:41 51°24.051 2°44.367 0.1 44 15.5 101440 48
2011-07-26 12:42 51°23.898 2°44.452 0.1 37 15.5 101430 47
2011-07-26 12:43 51°23.744 2°44.544 -999 39 15.5 101430 48
2011-07-26 12:44 51°23.594 2°44.629 -999 54 15.6 101440 49
2011-07-26 12:45 51°23.438 2°44.716 -999 7 15.7 101440 49
2011-07-26 12:46 51°23.287 2°44.805 -999 32 15.7 101440 49
2011-07-26 12:47 51°23.132 2°44.897 -999 42 15.8 101440 49
2011-07-26 12:48 51°22.975 2°44.983 -999 31 15.7 101450 48
2011-07-26 12:49 51°22.828 2°45.096 -999 55 15.7 101440 48
2011-07-26 12:50 51°22.702 2°45.281 -999 305 15.8 101440 48
2011-07-26 12:51 51°22.576 2°45.459 0.1 305 15.9 101440 49
2011-07-26 12:52 51°22.435 2°45.635 -999 308 16 101450 49
2011-07-26 12:53 51°22.296 2°45.806 1 302 16 101450 48
2011-07-26 12:54 51°22.153 2°45.979 -999 55 16.1 101450 49
2011-07-26 12:55 51°22.011 2°46.147 -999 305 16 101450 48
2011-07-26 12:56 51°21.866 2°46.326 -999 305 16 101450 48
2011-07-26 12:57 51°21.724 2°46.503 -999 55 16 101460 48
2011-07-26 12:58 51°21.579 2°46.667 -999 55 15.9 101450 48
2011-07-26 12:59 51°21.431 2°46.84 -999 306 16 101450 48
2011-07-26 13:00 51°21.292 2°47.006 -999 55 16.1 101450 48
2011-07-26 13:01 51°21.148 2°47.179 -999 55 16 101450 48
2011-07-26 13:02 51°21.008 2°47.344 -999 55 16 101450 48
2011-07-26 13:03 51°20.866 2°47.516 -999 305 16 101460 48
2011-07-26 13:04 51°20.729 2°47.683 -999 55 16.1 101450 48
2011-07-26 13:05 51°20.585 2°47.842 -999 55 16.2 101450 48
2011-07-26 13:06 51°20.445 2°48.014 -999 57 16.1 101450 48
2011-07-26 13:07 51°20.298 2°48.178 -999 55 16.1 101460 48
2011-07-26 13:08 51°20.151 2°48.351 -999 55 16.1 101460 48
2011-07-26 13:09 51°20.011 2°48.52 -999 55 16 101460 47
2011-07-26 13:10 51°19.862 2°48.689 -999 60 16.1 101460 48
2011-07-26 13:11 51°19.719 2°48.854 -999 55 16.2 101460 48
2011-07-26 13:12 51°19.573 2°49.023 -999 55 16.2 101460 48
2011-07-26 13:13 51°19.427 2°49.187 -999 55 16.3 101460 48
2011-07-26 13:14 51°19.282 2°49.356 -999 56 16.2 101470 47
2011-07-26 13:15 51°19.143 2°49.515 -999 305 16.3 101470 48
2011-07-26 13:16 51°19.002 2°49.674 -999 55 16.3 101470 48
2011-07-26 13:17 51°18.862 2°49.843 -999 305 16.3 101460 48
2011-07-26 13:18 51°18.729 2°50.015 -999 306 16.4 101460 48
2011-07-26 13:19 51°18.593 2°50.196 -999 55 16.4 101470 48
2011-07-26 13:20 51°18.458 2°50.368 -999 305 16.4 101470 48
2011-07-26 13:21 51°18.319 2°50.551 -999 305 16.4 101470 47
2011-07-26 13:22 51°18.183 2°50.721 -999 305 16.5 101470 48
2011-07-26 13:23 51°18.047 2°50.902 -999 307 16.5 101470 48
2011-07-26 13:24 51°17.907 2°51.075 -999 55 16.5 101470 47
2011-07-26 13:25 51°17.767 2°51.244 -999 305 16.5 101470 48
2011-07-26 13:26 51°17.625 2°51.417 -999 354 16.6 101470 48
2011-07-26 13:27 51°17.481 2°51.574 -999 34 16.7 101470 48
2011-07-26 13:28 51°17.327 2°51.723 -999 37 16.7 101470 47
2011-07-26 13:29 51°17.177 2°51.869 -999 26 16.5 101460 47
2011-07-26 13:30 51°17.02 2°52.019 -999 28 16.4 101470 47
2011-07-26 13:31 51°16.871 2°52.17 0.1 37 16.3 101470 47
2011-07-26 13:32 51°16.718 2°52.318 -999 308 16.4 101470 48
2011-07-26 13:33 51°16.573 2°52.484 -999 305 16.4 101470 48
2011-07-26 13:34 51°16.426 2°52.641 -999 305 16.5 101470 48
2011-07-26 13:35 51°16.277 2°52.8 -999 305 16.6 101470 48
2011-07-26 13:36 51°16.136 2°52.958 -999 55 16.7 101470 48
2011-07-26 13:37 51°15.993 2°53.141 -999 310 16.7 101470 48
2011-07-26 13:38 51°15.86 2°53.332 -999 55 16.6 101480 48
2011-07-26 13:39 51°15.721 2°53.518 -999 55 16.5 101480 47
2011-07-26 13:40 51°15.578 2°53.707 -999 55 16.5 101480 47
2011-07-26 13:41 51°15.438 2°53.895 -999 55 16.5 101480 48
2011-07-26 13:42 51°15.295 2°54.082 -999 305 16.5 101480 48
2011-07-26 13:43 51°15.155 2°54.263 -999 306 16.6 101480 48
2011-07-26 13:44 51°15.01 2°54.45 -999 305 16.6 101480 47
2011-07-26 13:45 51°14.861 2°54.612 -999 305 16.6 101480 47
2011-07-26 13:46 51°14.697 2°54.765 -999 305 16.6 101480 48
2011-07-26 13:47 51°14.546 2°54.921 -999 305 16.6 101480 47
2011-07-26 13:48 51°14.411 2°55.117 -999 305 16.5 101480 47
2011-07-26 13:49 51°14.288 2°55.259 -999 55 16.5 101480 47
2011-07-26 13:50 51°14.18 2°55.365 -999 55 16.4 101480 47
2011-07-26 13:51 51°14.061 2°55.459 -999 55 16.3 101490 47
2011-07-26 13:52 51°13.949 2°55.542 -999 55 16.4 101480 48
2011-07-26 13:53 51°13.843 2°55.622 -999 55 16.4 101490 48
2011-07-26 13:54 51°13.755 2°55.714 3.2 52 16.4 101490 46
2011-07-26 13:55 51°13.698 2°55.818 0.1 55 16.2 101490 48
2011-07-26 13:56 51°13.66 2°55.907 -999 55 16.1 101490 47
2011-07-26 13:57 51°13.642 2°55.991 -999 310 16.1 101490 47